Hourly Weather Bolshie Kushmany

Today, 20 June, Sunday

Time Temperature Precipitation Wind Pressure Humidity
00:00 +18°C° 0 mm 3 mps 754 mmHg 92%
01:00 +17°C° 0 mm 3 mps 754 mmHg 92%
02:00 +17°C° 0 mm 3 mps 754 mmHg 92%
03:00 +17°C° 0 mm 3 mps 754 mmHg 92%
04:00 +18°C° 0 mm 3 mps 755 mmHg 89%
05:00 +19°C° 0 mm 3 mps 755 mmHg 85%
06:00 +21°C° 0 mm 3 mps 755 mmHg 82%
07:00 +22°C° 0 mm 3 mps 755 mmHg 77%
08:00 +25°C° 0 mm 3 mps 755 mmHg 72%
09:00 +26°C° 0 mm 4 mps 755 mmHg 68%
10:00 +27°C° 0 mm 4 mps 755 mmHg 64%
11:00 +28°C° 0 mm 4 mps 755 mmHg 61%
12:00 +29°C° 0 mm 4 mps 755 mmHg 58%
13:00 +29°C° 0 mm 3 mps 755 mmHg 57%
14:00 +30°C° 0 mm 3 mps 755 mmHg 56%
15:00 +30°C° 0 mm 3 mps 754 mmHg 56%
16:00 +29°C° 0 mm 3 mps 754 mmHg 61%
17:00 +29°C° 0 mm 3 mps 754 mmHg 66%
18:00 +28°C° 0 mm 3 mps 754 mmHg 71%
19:00 +26°C° 0 mm 2 mps 754 mmHg 76%
20:00 +25°C° 0 mm 2 mps 754 mmHg 81%
21:00 +23°C° 0 mm 1 mps 754 mmHg 86%
22:00 +22°C° 0 mm 1 mps 754 mmHg 87%
23:00 +22°C° 0 mm 1 mps 754 mmHg 89%

Tomorrow, 21 June, Monday

Time Temperature Precipitation Wind Pressure Humidity
00:00 +21°C° 0 mm 1 mps 754 mmHg 90%
01:00 +21°C° 0 mm 1 mps 755 mmHg 90%
02:00 +20°C° 0 mm 2 mps 755 mmHg 90%
03:00 +20°C° 0 mm 2 mps 755 mmHg 90%
04:00 +21°C° 0 mm 2 mps 755 mmHg 87%
05:00 +23°C° 0 mm 2 mps 755 mmHg 85%
06:00 +23°C° 0 mm 2 mps 755 mmHg 82%
07:00 +25°C° 0 mm 2 mps 755 mmHg 77%
08:00 +26°C° 0 mm 3 mps 755 mmHg 72%
09:00 +28°C° 0 mm 3 mps 755 mmHg 67%
10:00 +28°C° 0 mm 3 mps 755 mmHg 63%
11:00 +29°C° 0 mm 3 mps 755 mmHg 60%
12:00 +30°C° 0 mm 3 mps 755 mmHg 56%
13:00 +30°C° 0 mm 3 mps 755 mmHg 55%
14:00 +31°C° 0 mm 3 mps 755 mmHg 53%
15:00 +31°C° 0 mm 3 mps 755 mmHg 52%
16:00 +30°C° 0 mm 2 mps 754 mmHg 57%
17:00 +30°C° 0 mm 2 mps 754 mmHg 62%
18:00 +30°C° 0 mm 2 mps 754 mmHg 67%
19:00 +28°C° 0 mm 2 mps 754 mmHg 72%
20:00 +26°C° 0 mm 2 mps 754 mmHg 76%
21:00 +24°C° 0 mm 2 mps 754 mmHg 81%
22:00 +24°C° 0 mm 2 mps 754 mmHg 84%
23:00 +23°C° 0 mm 2 mps 754 mmHg 86%

Day after tomorrow, 22 June, Tuesday

Time Temperature Precipitation Wind Pressure Humidity
00:00 +23°C° 0 mm 1 mps 755 mmHg 88%
01:00 +21°C° 0 mm 2 mps 755 mmHg 89%
02:00 +21°C° 0 mm 2 mps 755 mmHg 90%
03:00 +21°C° 0 mm 2 mps 755 mmHg 91%
04:00 +23°C° 0 mm 2 mps 755 mmHg 88%
05:00 +24°C° 0 mm 2 mps 755 mmHg 85%
06:00 +25°C° 0 mm 2 mps 755 mmHg 82%
07:00 +26°C° 0 mm 2 mps 755 mmHg 76%
08:00 +28°C° 0 mm 2 mps 755 mmHg 71%
09:00 +29°C° 0 mm 2 mps 755 mmHg 66%
10:00 +30°C° 0.3 mm 2 mps 755 mmHg 63%
11:00 +30°C° 0.3 mm 2 mps 755 mmHg 60%
12:00 +31°C° 0.3 mm 2 mps 755 mmHg 56%
13:00 +31°C° 0 mm 2 mps 755 mmHg 54%
14:00 +32°C° 0 mm 2 mps 755 mmHg 52%
15:00 +32°C° 0 mm 2 mps 755 mmHg 50%
16:00 +31°C° 0 mm 2 mps 755 mmHg 56%
17:00 +31°C° 0 mm 2 mps 754 mmHg 61%
18:00 +30°C° 0 mm 2 mps 754 mmHg 67%
19:00 +28°C° 0 mm 2 mps 754 mmHg 72%
20:00 +26°C° 0 mm 2 mps 754 mmHg 77%
21:00 +25°C° 0 mm 2 mps 754 mmHg 81%
22:00 +24°C° 0 mm 2 mps 754 mmHg 83%
23:00 +23°C° 0 mm 2 mps 754 mmHg 85%

23 June, Wednesday

Time Temperature Precipitation Wind Pressure Humidity
00:00 +23°C° 0 mm 1 mps 754 mmHg 86%
01:00 +23°C° 0 mm 1 mps 754 mmHg 87%
02:00 +21°C° 0 mm 2 mps 755 mmHg 87%
03:00 +21°C° 0 mm 2 mps 755 mmHg 88%
04:00 +23°C° 0 mm 2 mps 755 mmHg 85%
05:00 +24°C° 0 mm 2 mps 755 mmHg 83%
06:00 +25°C° 0 mm 2 mps 755 mmHg 80%
07:00 +26°C° 0 mm 2 mps 755 mmHg 74%
08:00 +28°C° 0 mm 2 mps 755 mmHg 69%
09:00 +29°C° 0 mm 3 mps 755 mmHg 63%
10:00 +30°C° 0 mm 3 mps 755 mmHg 59%
11:00 +31°C° 0 mm 3 mps 755 mmHg 56%
12:00 +32°C° 0 mm 2 mps 755 mmHg 52%
13:00 +33°C° 0 mm 3 mps 755 mmHg 50%
14:00 +33°C° 0 mm 3 mps 755 mmHg 48%
15:00 +33°C° 0 mm 3 mps 755 mmHg 46%
16:00 +32°C° 0 mm 2 mps 754 mmHg 52%
17:00 +31°C° 0 mm 2 mps 754 mmHg 58%
18:00 +30°C° 0 mm 2 mps 754 mmHg 64%
19:00 +29°C° 0 mm 2 mps 754 mmHg 67%
20:00 +27°C° 0 mm 2 mps 754 mmHg 71%
21:00 +25°C° 0 mm 2 mps 754 mmHg 74%
22:00 +25°C° 0 mm 2 mps 754 mmHg 76%
23:00 +24°C° 0 mm 2 mps 754 mmHg 78%

24 June, Thursday

Time Temperature Precipitation Wind Pressure Humidity
00:00 +24°C° 0 mm 2 mps 754 mmHg 81%
01:00 +23°C° 0.1 mm 2 mps 754 mmHg 82%
02:00 +23°C° 0.1 mm 2 mps 754 mmHg 83%
03:00 +22°C° 0.1 mm 1 mps 754 mmHg 84%
04:00 +23°C° 0.2 mm 2 mps 754 mmHg 83%
05:00 +24°C° 0.2 mm 2 mps 754 mmHg 81%
06:00 +25°C° 0.2 mm 2 mps 754 mmHg 80%
07:00 +26°C° 0 mm 2 mps 754 mmHg 75%
08:00 +28°C° 0 mm 2 mps 754 mmHg 71%
09:00 +29°C° 0 mm 3 mps 754 mmHg 66%
10:00 +30°C° 0 mm 3 mps 753 mmHg 63%
11:00 +31°C° 0 mm 3 mps 753 mmHg 59%
12:00 +33°C° 0 mm 3 mps 753 mmHg 55%
13:00 +33°C° 0 mm 3 mps 753 mmHg 54%
14:00 +34°C° 0 mm 3 mps 753 mmHg 52%
15:00 +34°C° 0 mm 3 mps 753 mmHg 50%
16:00 +32°C° 0 mm 2 mps 752 mmHg 55%
17:00 +32°C° 0 mm 2 mps 752 mmHg 61%
18:00 +31°C° 0 mm 2 mps 752 mmHg 67%
19:00 +29°C° 0 mm 2 mps 752 mmHg 72%
20:00 +28°C° 0 mm 2 mps 752 mmHg 77%
21:00 +26°C° 0 mm 2 mps 752 mmHg 82%
22:00 +25°C° 0 mm 2 mps 752 mmHg 84%
23:00 +25°C° 0 mm 2 mps 751 mmHg 86%

25 June, Friday

Time Temperature Precipitation Wind Pressure Humidity
00:00 +24°C° 0 mm 2 mps 751 mmHg 88%
01:00 +24°C° 0 mm 2 mps 751 mmHg 87%
02:00 +23°C° 0 mm 2 mps 751 mmHg 87%
03:00 +23°C° 0 mm 2 mps 751 mmHg 86%
04:00 +24°C° 0 mm 2 mps 751 mmHg 83%
05:00 +25°C° 0 mm 2 mps 751 mmHg 81%
06:00 +26°C° 0 mm 2 mps 751 mmHg 78%
07:00 +27°C° 0 mm 2 mps 751 mmHg 73%
08:00 +28°C° 0 mm 3 mps 751 mmHg 68%
09:00 +30°C° 0 mm 3 mps 751 mmHg 63%
10:00 +32°C° 0 mm 4 mps 751 mmHg 61%
11:00 +32°C° 0 mm 4 mps 751 mmHg 59%
12:00 +33°C° 0 mm 4 mps 751 mmHg 58%
13:00 +33°C° 0 mm 4 mps 751 mmHg 56%
14:00 +33°C° 0 mm 4 mps 750 mmHg 55%
15:00 +34°C° 0 mm 4 mps 750 mmHg 54%
16:00 +33°C° 0 mm 4 mps 750 mmHg 59%
17:00 +32°C° 0 mm 4 mps 749 mmHg 65%
18:00 +30°C° 0 mm 4 mps 749 mmHg 70%
19:00 +29°C° 0 mm 3 mps 749 mmHg 74%
20:00 +27°C° 0 mm 3 mps 749 mmHg 77%
21:00 +26°C° 0 mm 2 mps 749 mmHg 81%
22:00 +26°C° 0 mm 2 mps 749 mmHg 81%
23:00 +25°C° 0 mm 2 mps 749 mmHg 81%
Show more